{"data":{"norad_id":67404,"intl_designator":"2026-005A","name":"STARLINK-36484","alt_names":[],"object_type":"PAYLOAD","status":"ACTIVE","operator":null,"country":"US","launch_date":"2026-01-12","launch_site_code":"AFETR","launch_vehicle":null,"mission":null,"orbit_class":"UNKNOWN","rcs_meters":null,"size_class":null,"mass_kg":null,"dimensions":null,"purposes":["comms"],"wikipedia_slug":null,"has_3d_model":false,"image_url":null,"decayed_at":null,"tle_current":{"epoch":"2026-05-25T02:03:38.044800Z","epoch_age_seconds":67290,"freshness":"FRESH","line1":"1 67404U 26005A   26145.08585700  .00011284  00000+0  41888-3 0  9992","line2":"2 67404  42.9992 166.2552 0001181 267.9631  92.1085 15.27584352 20380","mean_motion":15.27584352,"eccentricity":0.0001181,"inclination_deg":42.9992,"raan_deg":166.2552,"arg_perigee_deg":267.9631,"mean_anomaly_deg":92.1085,"bstar":0.00041888,"rev_number":2038,"period_min":94.266480153104,"perigee_km":482.22576007804,"apogee_km":483.8463691559,"semimajor_km":6861.173064617,"source":"CELESTRAK","updated_at":"2026-05-25T13:38:21.551567Z"}}}